[[{"header":{"parameterUnit":"m.s-1","parameterCategory":1,"la1":30.2991,"la2":30.254,"lo1":-89.0895,"lo2":-89.0444,"dy":0.0017,"dx":0.0017,"nx":28,"ny":28,"refTime":"2024-06-17T03:00:00:Z","depth":0,"parameterNumber":2,"parameterNumberName":"U-component_of_WINDS"},"data":[0,0,0,0,0,0,0,0,0,0,0,0,0,0,0,0,0,0,0,0,0,0,0,0,0,0,0,0,0,0,0,0,0,0,0,0,0,0,0,0,0,0,0,0,0,0,0,0,0,0,0,0,0,0,0,0,0,0,-10.2721,-10.2722,0,-10.2852,-10.2853,-10.2854,-10.2671,-10.2664,-10.2658,-10.2651,-10.2784,-10.2793,-10.2802,0,0,0,0,0,0,0,0,0,0,0,0,0,-10.231,-10.2318,-10.2721,-10.2723,-10.2724,-10.2851,-10.2853,-10.2855,-10.2672,-10.2664,-10.2656,-10.2648,-10.278,-10.2792,-10.2803,0,0,0,0,0,0,0,0,0,0,0,0,0,-10.2469,-10.2321,-10.2721,-10.2648,-10.2643,-10.2851,-10.2853,-10.2855,-10.2673,-10.2664,-10.2654,-10.2645,-10.2777,-10.2791,-10.2805,-10.309,0,0,-10.2849,-10.2855,0,0,0,0,0,0,0,0,-10.246,-10.2485,-10.2657,-10.2654,-10.2648,-10.2735,-10.2756,-10.2934,-10.2676,-10.2662,-10.2651,-10.264,-10.2775,-10.2789,-10.2835,-10.3096,-10.3101,-10.285,-10.2859,-10.2865,-10.2869,0,0,0,0,0,0,0,-10.245,-10.2478,-10.2772,-10.266,-10.2654,-10.2608,-10.262,-10.2789,-10.2772,-10.2662,-10.2649,-10.2667,-10.2771,-10.2822,-10.2837,-10.3103,-10.285,-10.2863,-10.2871,-10.2877,-10.36,-10.361,0,0,0,0,0,0,-10.2448,-10.247,-10.2768,-10.2776,-10.2528,-10.2623,-10.2637,-10.2717,-10.2769,-10.2768,-10.2676,-10.2658,-10.2802,-10.282,-10.2841,-10.3174,-10.2865,-10.2878,-10.2887,-10.3589,-10.3602,-10.3614,0,0,0,0,0,0,-10.2439,-10.2476,-10.2763,-10.262,-10.2653,-10.2641,-10.2732,-10.2725,-10.2775,-10.2779,-10.2775,-10.2731,-10.2795,-10.282,-10.3028,-10.3176,-10.2885,-10.2898,-10.3577,-10.3593,-10.3608,-10.3845,0,0,0,0,0,0,-10.2428,-10.2474,-10.2583,-10.2624,-10.2661,-10.295,-10.2742,-10.2734,-10.28,-10.2779,-10.283,-10.2829,-10.2789,-10.3008,-10.3043,-10.319,-10.2909,-10.3563,-10.3584,-10.3603,-10.3823,-10.3866,-10.3903,0,0,0,0,0,-10.2414,-10.2645,-10.259,-10.2627,-10.2797,-10.2959,-10.298,-10.293,-10.2813,-10.2921,-10.2924,-10.2827,-10.3155,-10.3031,-10.3068,-10.3223,-10.3554,-10.3578,-10.3601,-10.3805,-10.3858,-10.3902,0,0,0,0,0,0,-10.2622,-10.2649,-10.2588,-10.2839,-10.2898,-10.2927,-10.3062,-10.2988,-10.3081,-10.3057,-10.299,-10.3003,-10.3225,-10.3245,-10.3106,-10.3499,-10.3335,-10.3367,-10.3477,-10.3527,-10.3566,-10.3555,-10.2921,0,0,0,0,0,-10.2697,-10.2827,-10.2843,-10.3063,-10.3096,-10.3075,-10.3144,-10.31,-10.3158,-10.3182,-10.32,-10.326,-10.3375,-10.3453,-10.356,-10.3827,-10.3833,-10.3951,-10.3991,-10.4024,-10.4052,-10.419,-10.4242,-10.3692,-10.3691,-10.3691,0,0,-10.2853,-10.2884,-10.297,-10.3105,-10.3146,-10.328,-10.3097,-10.3248,-10.3346,-10.3205,-10.34,-10.3417,-10.3478,-10.3716,-10.3822,-10.3739,-10.4206,-10.4054,-10.4081,-10.409,-10.422,-10.4272,-10.4318,-10.3708,-10.3705,-10.3702,0,0,-10.3205,-10.3244,-10.3428,-10.3473,-10.3537,-10.3521,-10.3566,-10.3607,-10.3612,-10.3808,-10.3704,-10.382,-10.4022,-10.4069,-10.412,-10.4489,-10.4402,-10.4527,-10.4734,-10.487,-10.4913,-10.4951,-10.5079,-10.5126,-10.4555,-10.4555,-10.4556,0,-10.339,-10.3589,-10.3533,-10.369,-10.3751,-10.363,-10.3816,-10.3862,-10.3958,-10.4002,-10.391,-10.4158,-10.4192,-10.4437,-10.4527,-10.4574,-10.462,-10.4518,-10.4912,-10.4949,-10.4984,-10.5105,-10.5153,-10.457,-10.4568,-10.4567,-10.4565,0,-10.3812,-10.3952,-10.4093,-10.4188,-10.4266,-10.4437,-10.4405,-10.4491,-10.4441,-10.4434,-10.4634,-10.467,-10.4781,-10.4837,-10.479,-10.5075,-10.5021,-10.4923,-10.4755,-10.5051,-10.5163,-10.521,-10.459,-10.4585,-10.4581,-10.4577,0,0,-10.4296,-10.4357,-10.441,-10.445,-10.4512,-10.4618,-10.4783,-10.4891,-10.4964,-10.5035,-10.5169,-10.5343,-10.525,-10.5308,-10.5265,-10.5385,-10.567,-10.527,-10.527,-10.5339,-10.5982,-10.6054,-10.6108,-10.5615,-10.5624,-10.5631,-10.5975,0,-10.4644,-10.4928,-10.4882,-10.5157,-10.5283,-10.517,-10.5313,-10.5365,-10.5365,-10.547,-10.5469,-10.5591,-10.5462,-10.5495,-10.561,-10.5612,-10.5798,-10.5587,-10.5736,-10.5742,-10.572,-10.6168,-10.6244,-10.6568,-10.6019,-10.6027,-10.6032,0,-10.5087,-10.5173,-10.546,-10.5499,-10.5551,-10.568,-10.5774,-10.5878,-10.5935,-10.5925,-10.599,-10.5925,-10.6087,-10.5921,-10.6142,-10.5999,-10.6058,-10.6069,-10.608,-10.6088,-10.5902,-10.6184,-10.667,-10.6717,-10.6102,-10.6096,-10.6091,0,-10.5406,-10.5594,-10.5789,-10.5828,-10.5879,-10.5972,-10.5998,-10.6045,-10.6113,-10.6195,-10.6237,-10.6339,-10.6393,-10.6473,-10.6435,-10.6319,-10.6663,-10.6494,-10.6656,-10.6657,-10.673,-10.6725,-10.7229,-10.6777,-10.6776,-10.6775,-10.6774,0,-10.5796,-10.5975,-10.5932,-10.6052,-10.6248,-10.6194,-10.639,-10.6402,-10.6445,-10.6563,-10.6473,-10.6586,-10.6533,-10.6642,-10.6615,-10.6799,-10.6826,-10.6821,-10.681,-10.6827,-10.6827,-10.6861,-10.6836,-10.6788,-10.6785,-10.6783,-10.678,0,-10.6184,-10.6163,-10.6367,-10.6399,-10.6412,-10.6555,-10.6581,-10.6692,-10.6685,-10.6836,-10.6868,-10.6856,-10.698,-10.6952,-10.7088,-10.7069,-10.73,-10.7264,-10.7281,-10.727,-10.7433,-10.7416,-10.7972,-10.804,-10.7549,-10.7553,-10.7557,0,-10.6432,-10.6567,-10.6614,-10.6687,-10.6719,-10.6839,-10.6906,-10.6858,-10.6932,-10.7006,-10.7108,-10.7224,-10.7313,-10.7516,-10.7518,-10.7621,-10.7583,-10.7771,-10.7598,-10.7609,-10.7581,-10.7571,-10.7582,-10.7804,-10.781,-10.7814,-10.7818,0,-10.6874,-10.6856,-10.6958,-10.7056,-10.714,-10.7215,-10.7281,-10.7346,-10.7302,-10.739,-10.7515,-10.7585,-10.7723,-10.7837,-10.7932,-10.7957,-10.788,-10.7873,-10.7915,-10.793,-10.7933,-10.7929,-10.737,-10.786,-10.7855,-10.7852,-10.785,-10.7848,-10.7196,-10.7309,-10.7359,-10.7474,-10.7519,-10.7583,-10.7688,-10.7693,-10.7797,-10.7905,-10.787,-10.8012,-10.8063,-10.8182,-10.8219,-10.8328,-10.8257,-10.832,-10.8334,-10.8349,-10.8367,-10.792,-10.8346,-10.8345,-10.8343,-10.8342,-10.8342,0,-10.7629,-10.7655,-10.7762,-10.7857,-10.7948,-10.7869,-10.7938,-10.8018,-10.8144,-10.8199,-10.8289,-10.8431,-10.8542,-10.8553,-10.8657,-10.8742,-10.8709,-10.8771,-10.8761,-10.8768,-10.8427,-10.8378,-10.8795,-10.8795,-10.8795,-10.8795,-10.8795,-10.8795,-10.7864,-10.805,-10.8039,-10.8246,-10.827,-10.8408,-10.8454,-10.8511,-10.8554,-10.8717,-10.8809,-10.8816,-10.8852,-10.8958,-10.9055,-10.9055,-10.9096,-10.917,-10.9157,-10.8837,-10.8792,-10.8749,-10.8702,-10.9181,-10.9181,-10.9487,-10.949,-10.9493]},{"header":{"parameterUnit":"m.s-1","parameterCategory":1,"la1":30.2991,"la2":30.254,"lo1":-89.0895,"lo2":-89.0444,"dy":0.0017,"dx":0.0017,"nx":28,"ny":28,"refTime":"2024-06-17T03:00:00:Z","depth":0,"parameterNumber":3,"parameterNumberName":"V-component_of_WINDS"},"data":[0,0,0,0,0,0,0,0,0,0,0,0,0,0,0,0,0,0,0,0,0,0,0,0,0,0,0,0,0,0,0,0,0,0,0,0,0,0,0,0,0,0,0,0,0,0,0,0,0,0,0,0,0,0,0,0,0,0,2.4109,2.4109,0,2.4123,2.4123,2.4124,2.405,2.4048,2.4046,2.4044,2.406,2.4062,2.4065,0,0,0,0,0,0,0,0,0,0,0,0,0,2.4021,2.4023,2.4109,2.4109,2.411,2.4123,2.4123,2.4124,2.4051,2.4048,2.4046,2.4043,2.4059,2.4062,2.4065,0,0,0,0,0,0,0,0,0,0,0,0,0,2.405,2.4024,2.4109,2.4075,2.4072,2.4123,2.4124,2.4124,2.4051,2.4048,2.4045,2.4042,2.4058,2.4062,2.4065,2.4151,0,0,2.4076,2.4078,0,0,0,0,0,0,0,0,2.4048,2.4053,2.408,2.4077,2.4074,2.4082,2.4098,2.4133,2.4052,2.4059,2.4044,2.404,2.407,2.4072,2.4082,2.4151,2.4152,2.4076,2.4079,2.408,2.4081,0,0,0,0,0,0,0,2.4046,2.4052,2.4115,2.408,2.4077,2.4059,2.406,2.4104,2.4082,2.4058,2.4053,2.4056,2.4068,2.4079,2.4082,2.4152,2.4076,2.4079,2.4082,2.4083,2.4293,2.4296,0,0,0,0,0,0,2.4049,2.4051,2.4114,2.4115,2.4053,2.4064,2.4064,2.4083,2.4081,2.4078,2.4058,2.4052,2.4074,2.4078,2.4082,2.4181,2.408,2.4083,2.4085,2.4289,2.4293,2.4297,0,0,0,0,0,0,2.4047,2.4055,2.4114,2.4082,2.4088,2.4068,2.409,2.4085,2.4095,2.4081,2.4077,2.4073,2.4072,2.4077,2.4134,2.4181,2.4085,2.4088,2.4285,2.4291,2.4295,2.4382,0,0,0,0,0,0,2.4045,2.4055,2.4087,2.4083,2.409,2.4165,2.4093,2.4087,2.4101,2.4094,2.4094,2.4092,2.407,2.4129,2.4138,2.4184,2.4091,2.4281,2.4288,2.4294,2.4374,2.4389,2.4402,0,0,0,0,0,2.4042,2.4111,2.4089,2.4097,2.4129,2.4168,2.4172,2.4145,2.4106,2.4138,2.4129,2.4092,2.4175,2.4136,2.4144,2.4193,2.4278,2.4286,2.4293,2.4368,2.4386,2.4401,0,0,0,0,0,0,2.4121,2.4109,2.4085,2.4154,2.4163,2.4156,2.4195,2.4165,2.4185,2.4177,2.4143,2.4144,2.4206,2.4206,2.4162,2.4276,2.4219,2.4229,2.4274,2.429,2.4304,2.4302,2.4094,0,0,0,0,0,2.4146,2.4178,2.4167,2.4229,2.4235,2.4215,2.4231,2.4209,2.4217,2.422,2.4215,2.4224,2.4252,2.4272,2.4297,2.4375,2.4374,2.4412,2.4426,2.4437,2.4446,2.4487,2.4504,2.4322,2.4322,2.4322,0,0,2.4199,2.4197,2.4219,2.4245,2.4249,2.4284,2.4218,2.4257,2.4283,2.4226,2.4279,2.4276,2.4284,2.4352,2.4382,2.4353,2.4496,2.4447,2.4456,2.4458,2.4496,2.4513,2.4529,2.4328,2.4327,2.4326,0,0,2.4312,2.4314,2.4366,2.4372,2.4378,2.4365,2.4377,2.4375,2.4371,2.4424,2.4382,2.4413,2.4462,2.4469,2.4479,2.4597,2.4563,2.4606,2.4677,2.4717,2.4731,2.4744,2.4785,2.4801,2.4615,2.4616,2.4616,0,2.4377,2.4426,2.4397,2.4439,2.4452,2.4402,2.4455,2.4462,2.4477,2.4487,2.4455,2.4516,2.4518,2.4587,2.4615,2.4626,2.4639,2.4605,2.4732,2.4744,2.4755,2.4794,2.481,2.4621,2.462,2.462,2.4619,0,2.4506,2.4541,2.4582,2.4598,2.4615,2.4663,2.4641,2.4662,2.464,2.463,2.4685,2.4686,2.471,2.4725,2.4704,2.4791,2.4773,2.4737,2.468,2.4778,2.4814,2.4829,2.4628,2.4626,2.4625,2.4623,0,0,2.4667,2.4666,2.4682,2.4688,2.4693,2.472,2.4766,2.4789,2.4808,2.4821,2.4858,2.4902,2.4868,2.488,2.4859,2.4895,2.4988,2.4854,2.4854,2.4879,2.5084,2.511,2.5128,2.4966,2.4969,2.4971,2.5083,0,2.4777,2.4854,2.4829,2.4907,2.494,2.4894,2.4934,2.4941,2.4934,2.496,2.4952,2.4983,2.4937,2.4944,2.4977,2.497,2.5028,2.4961,2.5,2.5002,2.4998,2.5147,2.5175,2.528,2.5097,2.5099,2.5101,0,2.4916,2.4933,2.5015,2.5014,2.5027,2.5063,2.5083,2.5109,2.5117,2.5109,2.5123,2.5095,2.514,2.5084,2.5146,2.5101,2.5116,2.5115,2.5118,2.5119,2.5057,2.5152,2.5313,2.5328,2.5123,2.5121,2.512,0,2.5024,2.5069,2.5123,2.513,2.5131,2.5158,2.5159,2.5164,2.518,2.5198,2.5208,2.5232,2.5244,2.5263,2.5243,2.5204,2.5308,2.525,2.5302,2.5303,2.5325,2.5323,2.5489,2.5337,2.5336,2.5336,2.5336,0,2.5149,2.52,2.5172,2.5205,2.5262,2.5233,2.529,2.5287,2.5292,2.5324,2.5287,2.5318,2.5289,2.5318,2.5303,2.5356,2.5362,2.5357,2.5352,2.536,2.536,2.5368,2.536,2.534,2.5339,2.5338,2.5338,0,2.5279,2.5262,2.5318,2.5315,2.5315,2.5357,2.5354,2.5385,2.5376,2.5417,2.5425,2.541,2.5442,2.5423,2.5456,2.5446,2.5515,2.5501,2.5512,2.5508,2.5561,2.5556,2.5737,2.5759,2.5593,2.5595,2.5596,0,2.5359,2.5398,2.5399,2.5417,2.5422,2.5452,2.5469,2.5443,2.5461,2.5474,2.5504,2.5533,2.5554,2.5608,2.56,2.5625,2.561,2.5672,2.5613,2.562,2.561,2.5607,2.5611,2.5683,2.5685,2.5687,2.5688,0,2.5503,2.5493,2.5517,2.554,2.556,2.5576,2.559,2.5607,2.5582,2.5605,2.5637,2.5654,2.5688,2.5717,2.5738,2.574,2.571,2.5707,2.572,2.5727,2.5732,2.5729,2.5543,2.5702,2.5701,2.57,2.5699,2.5698,2.561,2.5642,2.5648,2.5676,2.5684,2.5697,2.5726,2.572,2.5746,2.5771,2.5755,2.5793,2.5801,2.5827,2.5833,2.5863,2.5838,2.5858,2.5862,2.5867,2.5874,2.5729,2.5867,2.5867,2.5866,2.5866,2.5866,0,2.5751,2.5752,2.5779,2.5799,2.5822,2.5792,2.5805,2.5827,2.586,2.587,2.5892,2.593,2.5958,2.5953,2.5979,2.6003,2.599,2.6011,2.6008,2.6009,2.5895,2.5881,2.6021,2.6021,2.6021,2.6021,2.6021,2.6021,2.5827,2.5879,2.587,2.5926,2.5927,2.5964,2.5974,2.5987,2.5994,2.6038,2.6061,2.6057,2.6061,2.6087,2.6112,2.611,2.6121,2.6147,2.6139,2.6033,2.6017,2.6002,2.5989,2.615,2.615,2.6251,2.6252,2.6252]}]]